STARLINK-38084

Last updated on Sun Aug 09 2026 00:02:04 GMT+0000 (Coordinated Universal Time)

1 69995U 26159W 26220.55111332 .00105008 00000+0 69571-3 0 9998 2 69995 97.2841 60.5200 0001613 54.4213 305.7202 15.75207978 5706
UTC large
Height (km)
Speed (km/s)
/
Latitude / Longitude
Inclination (degrees)
Orbital Period (minutes)
Azimuth
Elevation
Range (km)
Doppler Factor

Next 0 passes for location: London (51.5072 / 0.1276)

No passes found over London.
STARLINK-38084